Location: Mason
(37.5237°N, 89.2543°W)
Time: 15:12:54
(UTC+00:00)

SL-24 R/B - RUBIN 2 - Pass Details

Date: 08 December 2021
Orbit: 599 x 996 km, 64.6° (Epoch: 19 January)

Event Time Altitude Azimuth Distance (km) Brightness Sun altitude
Rises 23:10:56 0° 329° (NNW) 2,929 7.1 -6.6°
Reaches altitude 10° 23:13:15 10° 330° (NNW) 1,985 6.3 -7.0°
Maximum altitude 23:17:41 86° 61° (ENE) 607 3.5 -7.8°
Drops below altitude 10° 23:22:00 10° 149° (SSE) 1,933 6.0 -8.6°
Sets 23:24:14 0° 150° (SSE) 2,845 6.9 -9.0°
